Location: Oriwa
(40.7500°S, 175.3333°E)
Time: 12:50:37
(UTC+00:00)

Lacrosse 4 Rocket - Pass Details

Date: 03 February 2023
Orbit: 536 x 607 km, 68.0° (Epoch: 30 March)

Event Time Altitude Azimuth Distance (km) Brightness Sun altitude
Exits shadow 13:26:05 24° 158° (SSE) 1,161 3.5 -31.4°
Drops below altitude 10° 13:27:48 10° 155° (SSE) 1,829 4.8 -31.3°
Sets 13:30:01 0° 153° (SSE) 2,734 6.0 -31.2°
